TimeIST,TemperatureF,Dew PointF,Humidity,Sea Level PressureIn,VisibilityMPH,Wind Direction,Wind SpeedMPH,Gust SpeedMPH,PrecipitationIn,Events,Conditions,WindDirDegrees,DateUTC
12:00 AM,50.0,42.8,76,29.56,6.2,SW,17.3,-,N/A,,Scattered Clouds,220,2013-06-14 23:00:00
12:30 AM,48.2,44.6,87,29.56,5.0,WSW,20.7,-,N/A,Rain,Light Rain Showers,240,2013-06-14 23:30:00
1:00 AM,48,45,85,29.57,12,SSW,13.4,,,Rain,Light Rain Showers,210,2013-06-15 00:00:00
1:00 AM,48.2,44.6,87,29.56,6.2,SSW,12.7,-,N/A,,Mostly Cloudy,210,2013-06-15 00:00:00
1:30 AM,48.2,44.6,87,29.56,6.2,SSW,11.5,-,N/A,,Mostly Cloudy,200,2013-06-15 00:30:00
2:00 AM,48.2,44.6,87,29.56,6.2,SSW,10.4,-,N/A,,Mostly Cloudy,200,2013-06-15 01:00:00
2:30 AM,48.2,44.6,87,29.56,5.6,SW,15.0,-,N/A,Rain,Light Rain Showers,220,2013-06-15 01:30:00
3:00 AM,48.2,44.6,87,29.56,6.2,SW,11.5,-,N/A,Rain,Light Rain Showers,220,2013-06-15 02:00:00
3:30 AM,46.4,44.6,93,29.56,6.2,SSW,11.5,-,N/A,,Scattered Clouds,200,2013-06-15 02:30:00
4:00 AM,46.4,44.6,93,29.56,6.2,SSW,10.4,-,N/A,,Partly Cloudy,200,2013-06-15 03:00:00
4:30 AM,46.4,44.6,93,29.56,6.2,SSW,13.8,-,N/A,,Partly Cloudy,210,2013-06-15 03:30:00
5:00 AM,48.2,44.6,87,29.56,6.2,SW,15.0,-,N/A,,Partly Cloudy,220,2013-06-15 04:00:00
5:30 AM,48.2,44.6,87,29.56,6.2,SSW,11.5,-,N/A,,Partly Cloudy,200,2013-06-15 04:30:00
6:00 AM,48.2,44.6,87,29.56,6.2,South,9.2,-,N/A,,Scattered Clouds,190,2013-06-15 05:00:00
6:30 AM,46.4,44.6,93,29.56,6.2,South,6.9,-,N/A,,Scattered Clouds,170,2013-06-15 05:30:00
7:00 AM,49,45,81,29.58,12,South,6.7,,,,Partly Cloudy,170,2013-06-15 06:00:00
7:00 AM,48.2,44.6,87,29.56,6.2,South,6.9,-,N/A,,Mostly Cloudy,170,2013-06-15 06:00:00
7:30 AM,50.0,44.6,82,29.56,6.2,South,11.5,-,N/A,,Mostly Cloudy,190,2013-06-15 06:30:00
8:00 AM,50.0,46.4,87,29.56,6.2,South,11.5,-,N/A,,Scattered Clouds,190,2013-06-15 07:00:00
8:30 AM,51.8,46.4,82,29.56,6.2,South,12.7,-,N/A,,Mostly Cloudy,190,2013-06-15 07:30:00
9:00 AM,51.8,48.2,88,29.56,6.2,South,12.7,-,N/A,,Mostly Cloudy,180,2013-06-15 08:00:00
9:30 AM,51.8,50.0,94,29.53,3.7,South,11.5,-,N/A,Rain,Light Rain,180,2013-06-15 08:30:00
10:00 AM,53.6,51.8,94,29.56,6.2,SW,13.8,-,N/A,,Mostly Cloudy,220,2013-06-15 09:00:00
10:30 AM,55.4,50.0,82,29.56,6.2,West,21.9,-,N/A,,Mostly Cloudy,270,2013-06-15 09:30:00
11:00 AM,57.2,50.0,77,29.59,6.2,West,23.0,-,N/A,,Scattered Clouds,270,2013-06-15 10:00:00
11:30 AM,57.2,48.2,72,29.62,6.2,West,21.9,-,N/A,,Scattered Clouds,270,2013-06-15 10:30:00
12:00 PM,59.0,50.0,72,29.62,6.2,West,17.3,-,N/A,,Mostly Cloudy,260,2013-06-15 11:00:00
12:30 PM,55.4,51.8,88,29.62,6.2,WSW,19.6,32.2,N/A,Rain,Light Rain Showers,250,2013-06-15 11:30:00
1:00 PM,55,53,89,29.64,10,WSW,20.1,,,Rain,Light Rain Showers,250,2013-06-15 12:00:00
1:00 PM,55.4,53.6,94,29.62,6.2,WSW,19.6,-,N/A,,Mostly Cloudy,250,2013-06-15 12:00:00
1:30 PM,53.6,53.6,100,29.62,3.7,WSW,20.7,-,N/A,Rain,Light Rain Showers,240,2013-06-15 12:30:00
2:00 PM,55.4,53.6,94,29.65,6.2,WSW,23.0,-,N/A,Rain,Light Rain Showers,240,2013-06-15 13:00:00
2:30 PM,55.4,51.8,88,29.65,3.7,WSW,21.9,-,N/A,Rain,Light Rain Showers,250,2013-06-15 13:30:00
3:00 PM,53.6,51.8,94,29.65,5.0,WSW,24.2,-,N/A,Rain,Light Rain,240,2013-06-15 14:00:00
3:30 PM,55.4,51.8,88,29.68,6.2,WSW,23.0,-,N/A,,Light Drizzle,250,2013-06-15 14:30:00
4:00 PM,55.4,51.8,88,29.68,3.1,WSW,23.0,-,N/A,,Light Drizzle,250,2013-06-15 15:00:00
4:30 PM,55.4,50.0,82,29.68,5.6,WSW,21.9,-,N/A,,Mostly Cloudy,250,2013-06-15 15:30:00
5:00 PM,55.4,50.0,82,29.71,6.2,WSW,20.7,-,N/A,,Mostly Cloudy,250,2013-06-15 16:00:00
5:30 PM,55.4,50.0,82,29.71,6.2,WSW,20.7,-,N/A,,Mostly Cloudy,250,2013-06-15 16:30:00
6:00 PM,55.4,50.0,82,29.71,6.2,WSW,19.6,-,N/A,,Mostly Cloudy,250,2013-06-15 17:00:00
6:30 PM,55.4,50.0,82,29.71,6.2,WSW,19.6,-,N/A,,Mostly Cloudy,250,2013-06-15 17:30:00
7:00 PM,54,49,78,29.74,11,WSW,20.1,,,Rain,Light Drizzle,240,2013-06-15 18:00:00
7:00 PM,53.6,50.0,88,29.74,6.2,WSW,19.6,-,N/A,,Mostly Cloudy,240,2013-06-15 18:00:00
7:30 PM,55.4,50.0,82,29.74,6.2,WSW,18.4,-,N/A,,Mostly Cloudy,250,2013-06-15 18:30:00
8:00 PM,55.4,48.2,77,29.74,6.2,WSW,20.7,-,N/A,,Scattered Clouds,240,2013-06-15 19:00:00
8:30 PM,55.4,48.2,77,29.74,6.2,WSW,19.6,-,N/A,,Scattered Clouds,240,2013-06-15 19:30:00
9:00 PM,53.6,48.2,82,29.74,6.2,WSW,17.3,-,N/A,,Scattered Clouds,240,2013-06-15 20:00:00
9:30 PM,53.6,48.2,82,29.74,6.2,WSW,17.3,-,N/A,,Mostly Cloudy,240,2013-06-15 20:30:00
10:00 PM,53.6,50.0,88,29.74,6.2,WSW,19.6,-,N/A,,Mostly Cloudy,240,2013-06-15 21:00:00
10:30 PM,53.6,50.0,88,29.77,6.2,WSW,15.0,-,N/A,,Mostly Cloudy,240,2013-06-15 21:30:00
11:00 PM,53.6,50.0,88,29.77,6.2,WSW,12.7,-,N/A,,Mostly Cloudy,240,2013-06-15 22:00:00
11:30 PM,53.6,50.0,88,29.77,6.2,WSW,17.3,-,N/A,,Mostly Cloudy,240,2013-06-15 22:30:00